Location: Ansan
(43.6898°N, 0.7731°E)
Time: 07:54:52
(UTC+00:00)

Longmarch 3A Rocket - Pass Details

Date: 15 May 2026
Orbit: 264 x 18566 km, 27.3° (Epoch: 3 June)

Event Time Altitude Azimuth Distance (km) Brightness Sun altitude
Rises 20:25:37 0° 253° (WSW) 6,126 7.6 -11.3°
Reaches altitude 10° 20:34:11 10° 221° (SW) 2,634 5.3 -12.5°
Maximum altitude 20:35:21 11° 209° (SSW) 2,278 4.8 -12.6°
Drops below altitude 10° 20:36:19 10° 197° (SSW) 2,065 4.5 -12.8°
Enters shadow 20:37:15 - 183° (S) 1,962 4.3 -12.9°
